{"data":{"norad_id":64494,"intl_designator":"2025-133Y","name":"STARLINK-34226","alt_names":[],"object_type":"PAYLOAD","status":"ACTIVE","operator":null,"country":"US","launch_date":"2025-06-23","launch_site_code":"AFETR","launch_vehicle":null,"mission":null,"orbit_class":"UNKNOWN","rcs_meters":null,"size_class":null,"mass_kg":null,"dimensions":null,"purposes":["comms"],"wikipedia_slug":null,"has_3d_model":false,"image_url":null,"decayed_at":null,"tle_current":{"epoch":"2026-05-25T04:50:42.957312Z","epoch_age_seconds":47800,"freshness":"FRESH","line1":"1 64494U 25133Y   26145.20188608  .00009976  00000+0  34835-3 0  9998","line2":"2 64494  53.1590 121.3365 0001482  94.8704 265.2466 15.30213729 52731","mean_motion":15.30213729,"eccentricity":0.0001482,"inclination_deg":53.159,"raan_deg":121.3365,"arg_perigee_deg":94.8704,"mean_anomaly_deg":265.2466,"bstar":0.00034835,"rev_number":5273,"period_min":94.104501398053,"perigee_km":474.1584167048,"apogee_km":476.18973810815,"semimajor_km":6853.3110774065,"source":"CELESTRAK","updated_at":"2026-05-25T13:38:20.462060Z"}}}